• In Portugal
  • List of Countries
  • For 7 days
  • Water Temperature
  • Satellite Maps
  • Weather Map
  • Weather Widgets
  • user-avatar
    Login

    Hourly Weather Choybalsan

    Today, 23 June, Saturday

    Time Temperature Precipitation Wind Pressure Humidity
    00:00 +21°C° 0 mm 2 mps 687 mmHg 65%
    01:00 +21°C° 0 mm 2 mps 687 mmHg 65%
    02:00 +20°C° 0 mm 2 mps 687 mmHg 65%
    03:00 +20°C° 0 mm 2 mps 687 mmHg 66%
    04:00 +20°C° 0 mm 1 mps 687 mmHg 68%
    05:00 +20°C° 0 mm 1 mps 687 mmHg 69%
    06:00 +21°C° 0 mm 1 mps 688 mmHg 64%
    07:00 +23°C° 0 mm 1 mps 688 mmHg 59%
    08:00 +24°C° 0 mm 1 mps 688 mmHg 54%
    09:00 +26°C° 0 mm 1 mps 688 mmHg 49%
    10:00 +27°C° 0 mm 1 mps 688 mmHg 44%
    11:00 +29°C° 0 mm 1 mps 688 mmHg 39%
    12:00 +30°C° 0 mm 2 mps 688 mmHg 36%
    13:00 +30°C° 0 mm 2 mps 688 mmHg 33%
    14:00 +31°C° 0 mm 3 mps 687 mmHg 32%
    15:00 +31°C° 0 mm 3 mps 687 mmHg 35%
    16:00 +31°C° 0 mm 3 mps 687 mmHg 37%
    17:00 +30°C° 0 mm 3 mps 687 mmHg 39%
    18:00 +29°C° 0 mm 3 mps 687 mmHg 45%
    19:00 +27°C° 0 mm 3 mps 686 mmHg 51%
    20:00 +26°C° 0 mm 3 mps 686 mmHg 57%
    21:00 +25°C° 0.4 mm 3 mps 686 mmHg 62%
    22:00 +24°C° 0.4 mm 3 mps 685 mmHg 66%
    23:00 +22°C° 0.4 mm 4 mps 685 mmHg 71%

    Tomorrow, 24 June, Sunday

    Time Temperature Precipitation Wind Pressure Humidity
    00:00 +21°C° 0.8 mm 5 mps 684 mmHg 71%
    01:00 +21°C° 0.8 mm 5 mps 684 mmHg 72%
    02:00 +21°C° 0.8 mm 6 mps 683 mmHg 73%
    03:00 +20°C° 1.5 mm 5 mps 683 mmHg 78%
    04:00 +20°C° 1.5 mm 4 mps 683 mmHg 84%
    05:00 +19°C° 1.5 mm 3 mps 682 mmHg 89%
    06:00 +19°C° 1.1 mm 4 mps 682 mmHg 89%
    07:00 +19°C° 1.1 mm 4 mps 682 mmHg 89%
    08:00 +19°C° 1.1 mm 4 mps 682 mmHg 89%
    09:00 +19°C° 0.2 mm 5 mps 683 mmHg 86%
    10:00 +19°C° 0.2 mm 6 mps 683 mmHg 82%
    11:00 +18°C° 0.2 mm 7 mps 683 mmHg 78%
    12:00 +21°C° 0 mm 7 mps 683 mmHg 70%
    13:00 +22°C° 0 mm 7 mps 684 mmHg 63%
    14:00 +24°C° 0 mm 7 mps 684 mmHg 55%
    15:00 +24°C° 0 mm 6 mps 684 mmHg 53%
    16:00 +24°C° 0 mm 6 mps 685 mmHg 50%
    17:00 +26°C° 0 mm 5 mps 685 mmHg 48%
    18:00 +25°C° 0 mm 4 mps 685 mmHg 52%
    19:00 +22°C° 0 mm 4 mps 685 mmHg 57%
    20:00 +21°C° 0 mm 3 mps 685 mmHg 62%
    21:00 +20°C° 0 mm 3 mps 685 mmHg 63%
    22:00 +20°C° 0 mm 3 mps 685 mmHg 63%
    23:00 +19°C° 0 mm 3 mps 686 mmHg 64%

    Day after tomorrow, 25 June, Monday

    Time Temperature Precipitation Wind Pressure Humidity
    00:00 +18°C° 0 mm 3 mps 686 mmHg 65%
    01:00 +18°C° 0 mm 3 mps 685 mmHg 66%
    02:00 +17°C° 0 mm 3 mps 685 mmHg 67%
    03:00 +17°C° 0 mm 3 mps 685 mmHg 68%
    04:00 +16°C° 0 mm 3 mps 685 mmHg 69%
    05:00 +16°C° 0 mm 3 mps 685 mmHg 70%
    06:00 +17°C° 0 mm 3 mps 685 mmHg 66%
    07:00 +18°C° 0 mm 4 mps 686 mmHg 62%
    08:00 +19°C° 0 mm 5 mps 686 mmHg 58%
    09:00 +20°C° 0 mm 6 mps 686 mmHg 55%
    10:00 +22°C° 0 mm 6 mps 686 mmHg 51%
    11:00 +23°C° 0 mm 7 mps 686 mmHg 48%
    12:00 +23°C° 0.1 mm 7 mps 686 mmHg 47%
    13:00 +24°C° 0.1 mm 6 mps 686 mmHg 46%
    14:00 +24°C° 0.1 mm 6 mps 686 mmHg 46%
    15:00 +24°C° 0 mm 6 mps 686 mmHg 46%
    16:00 +25°C° 0 mm 5 mps 686 mmHg 47%
    17:00 +25°C° 0 mm 4 mps 686 mmHg 47%
    18:00 +23°C° 0 mm 4 mps 686 mmHg 52%
    19:00 +22°C° 0 mm 3 mps 686 mmHg 58%
    20:00 +21°C° 0 mm 3 mps 685 mmHg 63%
    21:00 +20°C° 0 mm 3 mps 685 mmHg 66%
    22:00 +19°C° 0 mm 3 mps 685 mmHg 69%
    23:00 +18°C° 0 mm 3 mps 685 mmHg 72%

    26 June, Tuesday

    Time Temperature Precipitation Wind Pressure Humidity
    00:00 +17°C° 0 mm 3 mps 685 mmHg 74%
    01:00 +16°C° 0 mm 3 mps 685 mmHg 75%
    02:00 +16°C° 0 mm 3 mps 685 mmHg 77%
    03:00 +14°C° 0 mm 3 mps 685 mmHg 78%
    04:00 +14°C° 0 mm 3 mps 685 mmHg 79%
    05:00 +13°C° 0 mm 3 mps 685 mmHg 80%
    06:00 +14°C° 0 mm 4 mps 685 mmHg 79%
    07:00 +15°C° 0 mm 5 mps 685 mmHg 77%
    08:00 +15°C° 0 mm 5 mps 686 mmHg 75%
    09:00 +16°C° 0.2 mm 5 mps 686 mmHg 73%
    10:00 +17°C° 0.2 mm 6 mps 686 mmHg 71%
    11:00 +19°C° 0.2 mm 6 mps 686 mmHg 68%
    12:00 +20°C° 0.3 mm 6 mps 686 mmHg 64%
    13:00 +21°C° 0.3 mm 7 mps 686 mmHg 61%
    14:00 +22°C° 0.3 mm 7 mps 686 mmHg 57%
    15:00 +22°C° 0.2 mm 7 mps 686 mmHg 56%
    16:00 +22°C° 0.2 mm 7 mps 686 mmHg 56%
    17:00 +22°C° 0.2 mm 6 mps 686 mmHg 56%
    18:00 +21°C° 0.1 mm 6 mps 686 mmHg 61%
    19:00 +20°C° 0.1 mm 5 mps 686 mmHg 66%
    20:00 +19°C° 0.1 mm 5 mps 686 mmHg 71%
    21:00 +17°C° 0 mm 5 mps 686 mmHg 74%
    22:00 +16°C° 0 mm 5 mps 686 mmHg 78%
    23:00 +15°C° 0 mm 5 mps 686 mmHg 81%

    27 June, Wednesday

    Time Temperature Precipitation Wind Pressure Humidity
    00:00 +15°C° 0 mm 5 mps 686 mmHg 82%
    01:00 +14°C° 0 mm 5 mps 686 mmHg 83%
    02:00 +14°C° 0 mm 5 mps 686 mmHg 85%
    03:00 +14°C° 0 mm 5 mps 686 mmHg 85%
    04:00 +14°C° 0 mm 5 mps 686 mmHg 85%
    05:00 +14°C° 0 mm 6 mps 686 mmHg 85%
    06:00 +15°C° 0 mm 6 mps 687 mmHg 78%
    07:00 +16°C° 0 mm 7 mps 687 mmHg 72%
    08:00 +18°C° 0 mm 8 mps 688 mmHg 65%
    09:00 +20°C° 0 mm 8 mps 688 mmHg 61%
    10:00 +21°C° 0 mm 9 mps 688 mmHg 57%
    11:00 +22°C° 0 mm 9 mps 688 mmHg 52%
    12:00 +23°C° 0.1 mm 9 mps 688 mmHg 51%
    13:00 +24°C° 0.1 mm 9 mps 688 mmHg 49%
    14:00 +24°C° 0.1 mm 9 mps 688 mmHg 48%
    15:00 +24°C° 0 mm 8 mps 688 mmHg 49%
    16:00 +24°C° 0 mm 7 mps 688 mmHg 51%
    17:00 +24°C° 0 mm 6 mps 688 mmHg 53%
    18:00 +23°C° 0 mm 5 mps 688 mmHg 57%
    19:00 +22°C° 0 mm 3 mps 688 mmHg 60%
    20:00 +21°C° 0 mm 2 mps 688 mmHg 64%
    21:00 +20°C° 0 mm 2 mps 688 mmHg 66%
    22:00 +19°C° 0 mm 2 mps 688 mmHg 67%
    23:00 +18°C° 0 mm 2 mps 688 mmHg 68%

    28 June, Thursday

    Time Temperature Precipitation Wind Pressure Humidity
    00:00 +18°C° 0 mm 3 mps 688 mmHg 69%
    01:00 +18°C° 0 mm 3 mps 688 mmHg 70%
    02:00 +17°C° 0 mm 3 mps 688 mmHg 70%
    03:00 +17°C° 0 mm 3 mps 687 mmHg 70%
    04:00 +17°C° 0 mm 4 mps 687 mmHg 70%
    05:00 +17°C° 0 mm 4 mps 687 mmHg 70%
    06:00 +19°C° 0 mm 4 mps 688 mmHg 65%
    07:00 +21°C° 0 mm 4 mps 688 mmHg 59%
    08:00 +23°C° 0 mm 4 mps 688 mmHg 53%
    09:00 +26°C° 0 mm 4 mps 688 mmHg 48%
    10:00 +28°C° 0 mm 5 mps 688 mmHg 42%
    11:00 +30°C° 0 mm 5 mps 688 mmHg 36%
    12:00 +30°C° 0 mm 5 mps 688 mmHg 34%
    13:00 +30°C° 0 mm 5 mps 688 mmHg 32%
    14:00 +32°C° 0 mm 5 mps 687 mmHg 30%
    15:00 +32°C° 0 mm 5 mps 687 mmHg 31%
    16:00 +32°C° 0 mm 5 mps 687 mmHg 31%
    17:00 +30°C° 0 mm 5 mps 687 mmHg 31%
    18:00 +29°C° 0 mm 4 mps 686 mmHg 37%
    19:00 +27°C° 0 mm 3 mps 686 mmHg 43%
    20:00 +25°C° 0 mm 2 mps 686 mmHg 49%
    21:00 +24°C° 0 mm 2 mps 686 mmHg 50%
    22:00 +24°C° 0 mm 2 mps 686 mmHg 50%
    23:00 +22°C° 0 mm 3 mps 686 mmHg 51%
    Show more